The Dalles, WA

6:06 AM PST on November 12, 2019 (GMT -0800)
Columbia Gorge Regional-The Dalles

Weather History for KDLS - September, 2019

Change the Weather History Date:

Saturday, September 21, 2019

  Actual Average Record
Temperature  
Mean Temperature 65 °F -  
Max Temperature 78 °F 78 °F 93 °F (1952)
Min Temperature 53 °F 48 °F 37 °F (1983)
Growing Degree Days 15 (Base 50)    
Moisture  
Dew Point 51 °F    
Average Humidity 60    
Maximum Humidity 83    
Minimum Humidity 39    
Precipitation  
Precipitation 0.00 in - - ()
Sea Level Pressure  
Sea Level Pressure 30.03 in    
Wind  
Wind Speed 8 mph (NW)    
Max Wind Speed 15 mph    
Max Gust Speed 18 mph    
Visibility 10 miles    
Events      
Averages and records for this station are not official NWS values.
T = Trace of Precipitation, MM = Missing Value Source: NWS Daily Summary

Daily Weather History Graph

Daily Weather History Graph

Search for Another Location

Airport or City:

Astronomy

Sep. 21, 2019 Rise Set
Actual Time 6:50 AM PDT 7:04 PM PDT
Civil Twilight 6:20 AM PDT 7:33 PM PDT
Nautical Twilight 5:45 AM PDT 8:08 PM PDT
Astronomical Twilight 5:09 AM PDT 8:44 PM PDT
Moon 11:26 PM PDT (9/21) 2:21 PM PDT (9/21)
Length of Visible Light 13h 13m
Length of Day
12h 14m
Waning Gibbous, 53% of the Moon is Illuminated
Sep 21
Waning Gibbous
Sep 21
Last Quarter
Sep 28
New
Oct 5
First Quarter
Oct 13
Full

Hourly Weather History & Observations

Time (PDT) Temp. Dew Point Humidity Pressure Visibility Wind Dir Wind Speed Gust Speed Precip Events Conditions
12:53 AM 62.1 °F 50.0 °F 65% 30.09 in 10.0 mi WNW 11.5 mph 18.4 mph N/A   Clear
1:53 AM 61.0 °F 52.0 °F 72% 30.10 in 10.0 mi NW 10.4 mph - N/A   Clear
2:53 AM 60.1 °F 51.1 °F 72% 30.10 in 10.0 mi NW 6.9 mph - N/A   Clear
3:53 AM 60.1 °F 52.0 °F 75% 30.10 in 10.0 mi WNW 9.2 mph - N/A   Clear
4:53 AM 57.9 °F 51.1 °F 78% 30.10 in 10.0 mi Calm Calm - N/A   Clear
5:53 AM 55.0 °F 48.9 °F 80% 30.11 in 10.0 mi ESE 5.8 mph - N/A   Clear
6:53 AM 53.1 °F 48.0 °F 83% 30.11 in 10.0 mi ESE 4.6 mph - N/A   Clear
7:53 AM 55.0 °F 48.0 °F 77% 30.12 in 10.0 mi SE 3.5 mph - N/A   Clear
8:53 AM 62.1 °F 52.0 °F 70% 30.12 in 10.0 mi North 4.6 mph - N/A   Clear
9:53 AM 64.0 °F 52.0 °F 65% 30.11 in 10.0 mi Variable 3.5 mph - N/A   Clear
10:53 AM 68.0 °F 53.1 °F 59% 30.09 in 10.0 mi WNW 4.6 mph - N/A   Clear
11:53 AM 70.0 °F 52.0 °F 53% 30.08 in 10.0 mi Calm Calm - N/A   Clear
12:53 PM 73.0 °F 52.0 °F 48% 30.05 in 10.0 mi Variable 3.5 mph - N/A   Clear
1:53 PM 73.9 °F 51.1 °F 45% 30.02 in 10.0 mi Calm Calm - N/A   Clear
2:53 PM 77.0 °F 50.0 °F 39% 29.99 in 10.0 mi Variable 6.9 mph - N/A   Clear
3:53 PM 77.0 °F 50.0 °F 39% 29.97 in 10.0 mi NW 13.8 mph - N/A   Clear
4:53 PM 75.9 °F 52.0 °F 43% 29.95 in 10.0 mi NW 15.0 mph - N/A   Clear
5:53 PM 73.9 °F 51.1 °F 45% 29.94 in 10.0 mi NW 12.7 mph - N/A   Clear
6:53 PM 71.1 °F 51.1 °F 49% 29.94 in 10.0 mi WNW 11.5 mph - N/A   Clear
7:53 PM 68.0 °F 51.1 °F 55% 29.94 in 10.0 mi WNW 9.2 mph - N/A   Clear
8:53 PM 66.9 °F 50.0 °F 54% 29.95 in 10.0 mi West 11.5 mph - N/A   Clear
9:53 PM 66.0 °F 50.0 °F 56% 29.94 in 10.0 mi WNW 12.7 mph - N/A   Clear
10:53 PM 64.0 °F 51.1 °F 63% 29.94 in 10.0 mi WNW 8.1 mph - N/A   Clear
11:53 PM 63.0 °F 52.0 °F 67% 29.94 in 10.0 mi WNW 10.4 mph - N/A   Clear